C/2005 K2 ( LINEAR )

Japanese version
Home page
Total 6,336 html files since Dec. 4, 1995
Updated on August 13, 2005

---------------------------------------------------------------------

* Profile

Discovery Date May 19, 2005
Magnitude 18.7 mag
Discoverer Lincoln Laboratory Near-Earth Asteroid Research project

* Pictures

* Orbital Elements

T 2005 July 5.3934 TT                                   MPC
q   0.544604             (2000.0)            P               Q
                   Peri.  216.5764      -0.6497537      +0.2961275
                   Node    45.7129      -0.2159616      +0.8111327
e   1.0            Incl.  102.0443      -0.7288215      -0.5043533
>From 122 observations 2005 May 20-June 20.

* Finding Charts

* Magnitudes Graph

        m1 = 13.5 + 5 log d + 25   log r          [   ,-24]  (             - 2005 June 11)
        m1 = 15.0 + 5 log d + 19.5 log r(t + 13)  [-24,  5]  (2005 June 11 - 2005 July 10)
        m1 = 24.5 + 5 log d + 50   log r          [  5,   ]  (2005 July 10 -             )

        * Gray curve is:  m1 = 13.5 + 5 log d + 10.0 log r

---------------------------------------------------------------------

The orbital elements are published on M.P.E.C. 2005-M54.
The charts are made with StellaNavigator Ver.2.0 for Windows (AstroArts / ASCII).
The magnitudes graphs are made with Comet for Windows.

---------------------------------------------------------------------

Copyright(C) 1995-2008 Seiichi Yoshida (comet@aerith.net). All rights reserved.